Location: Pulvis Stellarum Observatory
(41.6962°N, 71.4263°W)
Time: 04:47:22
(UTC-04:00)

Daily predictions for brighter satellites

Satellite Brightness Start Highest point End
(mag) Time Altitude Azimuth Time Altitude Azimuth Time Altitude Azimuth
BREEZE-M DEB (TANK) 4.2 00:01:24 10° NW 00:04:12 35° NNE 00:11:31 10° E
ALOS 2 3.2 00:07:31 53° NNE 00:07:31 53° NNE 00:11:01 10° N
H-2A R/B 3.5 00:06:31 10° NNE 00:09:52 46° NE 00:09:52 46° NE
Meteor 2-21 Rocket 4.3 00:11:09 76° SSW 00:11:41 87° W 00:17:56 10° N
Meteor 2-16 Rocket 4.3 00:16:16 79° SSE 00:16:36 84° E 00:22:45 10° N
Cosmos 1315 Rocket 4.4 00:18:45 31° NNE 00:18:45 31° NNE 00:20:56 10° NNE
Terra 4.3 00:16:52 11° W 00:17:23 11° W 00:18:45 10° WNW
Cosmos 1455 Rocket 4.2 00:23:53 37° NE 00:23:53 37° NE 00:26:48 10° NNE
Lacrosse 5 rocket 4.0 00:26:38 11° NE 00:26:38 11° NE 00:26:50 10° NE
Lacrosse 5 3.1 00:27:11 31° ENE 00:27:11 31° ENE 00:30:00 10° NE
NOSS 3-1 (C) 4.0 00:17:27 10° NNW 00:25:03 78° NE 00:27:26 50° SE
CZ-2C R/B 3.5 00:21:13 10° NNE 00:25:21 38° ENE 00:25:21 38° ENE
Cosmos 1302 Rocket 4.3 00:31:59 61° WNW 00:31:59 61° WNW 00:37:13 10° NNE
Cosmos 1025 Rocket 4.2 00:28:57 10° NNW 00:32:03 38° NW 00:32:03 38° NW
Meteor 1-11 Rocket 4.3 00:33:06 46° W 00:33:51 48° WNW 00:39:28 10° N
CZ-2C R/B 3.9 00:38:43 39° ENE 00:38:48 39° ENE 00:43:25 10° N
Cosmos 1833 Rocket 4.3 00:35:12 10° NW 00:39:00 23° W 00:39:00 23° W
Gbstr 26 Del rocket 4.4 00:37:32 10° NW 00:40:15 34° NW 00:40:15 34° NW
Meteor 2-4 Rocket 3.9 00:37:49 10° NNW 00:42:48 57° WNW 00:42:48 57° WNW
Cosmos 1447 Rocket 4.3 00:37:52 10° N 00:44:03 77° E 00:44:23 75° ESE
UNK 4.5 00:25:26 10° SW 00:44:50 79° SSE 00:49:26 10° ENE
GP-B 4.1 00:46:31 10° N 00:49:47 43° NE 00:49:47 43° NE
Cosmos 1943 Rocket 3.2 00:52:36 34° E 00:52:36 34° E 00:56:50 10° NE
Cosmos 2082 Rocket 4.3 00:49:02 10° WNW 00:51:28 14° W 00:51:28 14° W
Cosmos 1346 Rocket 4.4 00:48:21 10° N 00:50:41 32° NNE 00:50:41 32° NNE
Cosmos 2100 Rocket 4.2 00:52:29 56° ESE 00:52:54 57° E 00:59:08 10° NNE
Cosmos 2061 Rocket 4.3 00:55:25 54° ESE 00:55:55 55° E 01:02:11 10° NNE
Cosmos 2263 4.2 00:58:16 68° ENE 00:58:16 68° ENE 01:03:25 10° NNE
Cosmos 1975 4.3 01:04:56 35° NNE 01:04:56 35° NNE 01:07:24 10° NNE
MOS 1-B Rocket 4.2 01:08:11 56° WSW 01:08:14 56° W 01:14:35 10° NNW
Cosmos 1802 Rocket 4.0 01:13:51 65° ESE 01:14:15 66° E 01:20:27 10° NNE
Cosmos 2285 Rocket 4.5 01:13:36 46° W 01:14:44 51° WNW 01:20:57 10° N
Cosmos 2016 Rocket 4.1 01:16:52 57° ESE 01:17:19 58° E 01:23:18 10° NNE
Cosmos 1833 4.4 01:13:01 10° NNW 01:18:36 61° ENE 01:19:08 58° E
Cosmos 1459 Rocket 3.8 01:20:30 81° S 01:20:51 87° E 01:26:59 10° N
Cosmos 1818 3.6 01:31:29 74° ENE 01:31:29 74° ENE 01:36:36 10° NE
SeaSat 1 2.6 01:33:33 70° NE 01:33:33 70° NE 01:38:26 10° NNW
Cosmos 1825 Rocket 4.3 01:32:14 10° N 01:35:58 52° NE 01:35:58 52° NE
Cosmos 2173 Rocket 3.9 01:36:12 68° WSW 01:36:46 73° W 01:43:08 10° N
Cosmos 1743 4.1 01:43:48 37° NNE 01:43:48 37° NNE 01:46:18 10° NNE
NOSS 3-1 (A) 4.2 01:36:08 10° NW 01:43:29 50° WSW 01:44:01 49° SW
Cosmos 968 Rocket 3.5 01:38:36 10° NNW 01:43:52 76° ENE 01:43:52 76° ENE
Cosmos 2369 Rocket 3.2 01:43:16 33° W 01:44:19 35° WNW 01:49:29 10° N
Cosmos 1758 Rocket 4.3 01:43:42 10° N 01:47:50 47° ENE 01:47:50 47° ENE
Cosmos 2219 3.7 01:42:49 10° NNW 01:48:23 55° ENE 01:49:54 42° ESE
Cosmos 1066 Rocket 4.1 01:44:47 10° NNW 01:49:55 72° WNW 01:49:55 72° WNW
ISS -0.2 01:48:33 11° NW 01:50:12 15° N 01:52:07 10° NNE
Cosmos 1725 Rocket 3.9 01:49:43 62° SE 01:50:35 71° E 01:56:45 10° NNE
Tsikada Rocket 4.1 01:48:24 10° N 01:54:42 74° E 01:56:02 56° SE
Lacrosse 5 rocket 3.2 02:02:21 21° NW 02:02:37 21° NNW 02:05:30 10° NNE
Cosmos 1340 3.9 02:00:53 10° N 02:03:55 38° NE 02:03:55 38° NE
ATLAS 2AS CENTAUR R/B 2.9 01:57:10 10° NW 02:05:19 84° WSW 02:08:36 39° SSE
CZ-2C R/B 4.0 02:01:58 10° N 02:06:12 26° WNW 02:06:52 25° WNW
Lacrosse 5 3.3 02:06:21 26° WNW 02:08:13 33° NNW 02:12:50 10° NNE
Cosmos 1777 Rocket 3.9 02:07:47 10° NNW 02:13:01 82° ENE 02:13:32 72° SE
PSLV R/B 3.7 02:12:36 10° N 02:16:42 71° NW 02:16:42 71° NW
IRS-P3 4.2 02:13:25 10° NNE 02:18:46 66° ESE 02:19:31 58° SE
Cosmos 1666 3.4 02:20:16 52° NNE 02:20:16 52° NNE 02:23:15 10° N
USA 161 4.4 02:26:10 14° ENE 02:26:33 14° ENE 02:28:11 10° NE
ATLAS CENTAUR R/B 4.3 02:27:37 10° ESE 02:29:00 11° ESE 02:30:35 10° E
Cosmos 1656 Rocket 3.8 02:33:31 55° WSW 02:34:33 66° WNW 02:40:11 10° NNE
Cosmos 1943 Rocket 3.3 02:34:07 29° W 02:35:31 33° WNW 02:40:32 10° N
Cosmos 1606 Rocket 4.5 02:36:15 36° WNW 02:36:15 36° WNW 02:39:52 10° N
Cosmos 2228 2.9 02:36:03 87° N 02:36:03 87° N 02:40:18 10° N
Landsat 4 4.2 02:37:27 54° NW 02:37:27 54° NW 02:40:32 10° NNW
NPP 3.6 02:33:40 10° NNE 02:39:06 84° ESE 02:40:15 57° S
Cosmos 2058 Rocket 3.6 02:47:43 44° WNW 02:47:43 44° WNW 02:51:53 10° N
Cosmos 44 Rocket 3.6 02:42:53 10° NW 02:47:24 51° W 02:47:24 51° W
AQUA 3.7 02:45:03 10° NNE 02:49:50 89° E 02:50:39 62° SSW
SL-8 R/B 3.5 02:47:17 10° WNW 02:52:07 83° SSW 02:56:53 10° ESE
Resurs 1-4 Rocket 3.5 02:48:29 10° NE 02:53:06 30° E 02:56:07 18° SE
Cosmos 1464 Rocket 4.3 02:50:25 31° SSE 02:53:23 63° E 02:59:37 10° NNE
Cosmos 1812 Rocket 3.9 02:52:49 49° SE 02:53:45 62° E 02:58:11 10° NNE
Cosmos 2346 Rocket 4.4 02:51:31 10° NNW 02:57:45 70° W 03:00:02 40° SSW
Cosmos 2233 Rocket 4.2 02:59:20 41° SW 03:01:05 53° WNW 03:07:05 10° N
Cosmos 1570 Rocket 4.3 03:00:19 44° WSW 03:01:37 56° WNW 03:06:53 10° NNE
Meteor 1-15 Rocket 4.4 03:00:27 44° SW 03:02:03 59° WNW 03:07:51 10° N
Cosmos 1707 3.8 03:01:25 10° N 03:05:12 43° ENE 03:07:02 25° SE
GENESIS II 4.1 03:07:26 70° SW 03:07:53 88° WNW 03:12:03 10° NNE
ERS-2 2.0 03:04:37 10° NNE 03:08:22 83° WNW 03:08:37 76° SW
ADEOS 3.5 03:04:25 10° NNE 03:09:41 89° ESE 03:11:35 41° SSW
Cosmos 1898 Rocket 4.1 03:04:53 10° NNW 03:10:10 57° ENE 03:15:25 10° SE
Meteor 2-5 Rocket 3.9 03:06:38 10° N 03:12:31 77° E 03:16:48 20° SSE
SL-08 R/B 3.7 03:12:33 42° WSW 03:12:53 42° W 03:17:20 10° NNW
Uosat 12 SS-18 rocket 4.3 03:09:44 10° NW 03:14:26 82° WSW 03:20:02 10° SSE
CBERS 1 LM4 rocket 4.3 03:09:55 10° N 03:14:40 73° WNW 03:16:07 44° SW
Okean 3 Rocket 4.1 03:12:48 10° N 03:17:10 57° E 03:19:57 21° SSE
NOSS 2-1 (E) 4.2 03:17:50 33° SSE 03:18:52 40° ESE 03:23:00 10° NE
BREEZE-M DEB (TANK) 2.7 03:12:37 10° WNW 03:20:52 57° SW 03:22:10 34° SSE
Cosmos 972 Rocket 3.9 03:18:48 10° NNW 03:23:38 59° WSW 03:25:39 34° SSW
Cosmos 1513 Rocket 4.4 03:22:31 28° S 03:25:55 90° W 03:32:01 10° N
GPS 2-04 Rocket1 4.5 03:26:46 18° SSE 03:26:46 18° SSE 03:28:49 10° ESE
ISS -0.5 03:25:04 10° NNW 03:27:33 20° NNE 03:30:03 10° ENE
Cosmos 2082 3.6 03:21:57 10° NNW 03:27:38 89° ENE 03:33:15 10° SSE
NOSS 3-4 (A) 4.5 03:21:00 10° NNW 03:27:50 56° NE 03:35:03 10° SE
Cosmos 1937 Rocket 4.0 03:22:57 10° NNW 03:28:04 58° ENE 03:33:10 10° SSE
ARIANE 5 R/B 2.5 03:27:23 10° NNE 03:32:32 89° W 03:35:16 29° SSW
Cosmos 1697 Rocket 3.8 03:28:41 16° SSE 03:32:44 38° ESE 03:37:56 10° NE
Cosmos 1980 Rocket 3.9 03:34:53 10° SSE 03:39:26 26° ESE 03:44:01 10° NE
CZ-2D R/B 2.2 03:34:20 10° NNE 03:39:50 80° ESE 03:43:29 22° S
Cosmos 1891 Rocket 4.4 03:37:08 26° SSW 03:40:41 72° W 03:46:47 10° N
Cosmos 44 3.8 03:36:05 10° NW 03:40:52 39° WSW 03:42:37 29° SSW
Spot 4 Rocket 4.3 03:35:56 10° N 03:40:59 54° WNW 03:43:25 29° SW
Cosmos 2227 Rocket 2.1 03:35:32 10° NNW 03:41:11 68° WSW 03:46:47 10° SSE
Milstar 3 Cent rocket 3.6 03:39:47 20° S 03:41:27 23° SSE 03:47:29 10° ESE
SL-16 R/B 2.4 03:35:58 12° S 03:41:50 77° WSW 03:48:02 10° NNW
MTI 4.3 03:46:46 13° SSE 03:49:34 60° ENE 03:52:49 10° N
CZ-2D R/B 4.2 03:46:52 10° NNE 03:51:06 54° E 03:54:43 14° S
Cosmos 2034 Rocket 4.1 03:47:56 23° SSW 03:51:55 62° W 03:58:05 10° N
IRS-1D 3.5 03:47:31 10° N 03:52:25 64° WNW 03:55:21 24° SSW
Lacrosse 5 4.4 03:49:38 10° NW 03:52:35 15° N 03:55:32 10° NNE
Cosmos 2298 Rocket 4.1 03:47:50 10° NNW 03:53:00 53° WSW 03:57:30 13° S
Cosmos 2278 4.1 03:51:23 25° SW 03:54:33 52° WNW 04:00:06 10° NNE
Cosmos 2369 3.9 03:51:18 25° SW 03:54:33 59° WNW 04:00:10 10° NNE
ATLAS 2AS CENTAUR R/B 4.2 03:50:19 10° WNW 03:55:07 18° WSW 03:55:56 17° WSW
Okean O Rocket 2.7 03:52:06 10° NNE 03:56:17 42° E 04:00:27 10° S
Cosmos 1766 3.3 03:53:54 21° S 03:56:26 83° E 04:00:25 10° N
USA 161 3.2 03:57:20 21° WNW 03:57:20 21° WNW 03:59:06 10° NW
Cosmos 405 Rocket 3.6 03:57:36 10° NNW 04:01:15 32° W 04:02:38 25° SW
Cosmos 2297 Rocket 2.2 03:57:41 10° NNW 04:03:16 63° WSW 04:08:49 10° S
UNK 4.0 04:01:08 18° SSW 04:04:22 47° W 04:08:55 10° NNW
Meteor 1-22 Rocket 4.4 04:01:01 16° SSW 04:05:51 76° W 04:12:00 10° N
Cosmos 1814 Rocket 4.2 04:02:38 21° SW 04:06:08 63° WNW 04:11:28 10° NNE
UNKNOWN OBJECT B 2.7 04:02:45 10° N 04:06:43 73° WNW 04:09:18 20° SSW
ATLAS CENTAUR R/B 1.8 04:03:58 21° SSW 04:07:23 88° SE 04:12:26 10° NE
Cosmos 1953 3.1 04:04:20 10° S 04:08:15 52° E 04:12:13 10° NNE
Nadezhda 4 Rocket 4.0 04:04:16 10° NNW 04:10:22 64° W 04:16:29 10° S
Meteor 1-24 Rocket 3.8 04:05:29 10° NNW 04:11:03 60° W 04:16:46 10° S
GEOS 3 Rocket 4.3 04:10:04 10° S 04:14:42 32° WSW 04:19:20 10° NW
Cosmos 1076 Rocket 3.5 04:13:41 10° NNW 04:18:00 64° W 04:22:14 10° S
SL-16 R/B 4.5 04:15:01 10° SE 04:19:01 20° E 04:23:02 10° NE
EO 1 Del DPAF 4.0 04:17:32 18° SSW 04:19:51 32° W 04:23:22 10° NNW
CZ-2C R/B 3.7 04:22:07 10° SSE 04:26:50 81° WSW 04:31:32 10° NNW
Cosmos 1766 Rocket 3.7 04:27:10 10° NNW 04:31:27 52° W 04:35:44 10° S
Cosmos 1408 Rocket 3.8 04:27:34 10° NNW 04:31:46 47° W 04:35:59 10° SSW
Resurs 1-4 Rocket 2.9 04:28:13 10° N 04:32:56 34° WNW 04:37:12 12° SW
Cosmos 1805 3.2 04:29:33 10° S 04:33:27 85° W 04:37:23 10° N
Okean-O 4.2 04:29:45 10° NNE 04:33:51 35° E 04:37:55 10° SSE
Cosmos 1378 3.8 04:31:33 10° NNW 04:35:03 35° W 04:38:31 10° SSW
CZ-4B R/B 3.3 04:31:32 10° NNE 04:37:09 87° ESE 04:42:37 10° SSW
Meteor 1-21 Rocket 4.4 04:31:32 10° N 04:37:29 89° E 04:43:25 10° S
Cosmos 990 Rocket 4.3 04:33:37 10° NNW 04:38:36 45° WSW 04:43:35 10° S
Cosmos-2242 3.1 04:36:11 10° SSW 04:40:27 61° W 04:44:45 10° N
Cosmos 1441 Rocket 3.8 04:37:59 10° NNW 04:41:42 38° W 04:45:25 10° SSW
Cosmos 2026 Rocket 4.1 04:35:34 10° N 04:41:58 88° W 04:48:16 10° S
Cosmos 1634 Rocket 4.1 04:35:53 10° SSW 04:42:03 66° W 04:48:19 10° N
MOZ.5/SAFIR/RUBIN 5/SL-8 3.8 04:37:46 10° S 04:42:28 65° WSW 04:47:09 10° NNW
Abrixas 4.3 04:44:41 10° NW 04:47:32 33° NNE 04:50:23 10° E
DELTA 2 R/B (2) 4.2 04:48:02 13° SW 04:49:32 27° S 04:51:05 10° ESE
CZ-4B R/B 2.8 04:46:47 10° N 04:50:50 73° WNW 04:54:39 10° SSW
Cosmos 2195 Rocket 4.5 04:46:18 10° NNW 04:52:22 64° W 04:58:22 10° S
Cosmos 1842 Rocket 3.7 04:48:03 10° S 04:52:32 87° E 04:57:03 10° N
PSLV R/B 4.3 04:48:44 10° NNE 04:52:53 55° E 04:57:03 10° S
Cosmos 1733 4.2 04:50:41 10° SSE 04:54:20 48° E 04:58:00 10° NNE
NOSS 7 (H) 4.4 04:51:57 10° SW 04:55:08 63° NW 04:58:31 10° NNE
Cosmos 1125 Rocket 3.5 04:53:09 10° NNW 04:58:22 74° WSW 05:03:32 10° S
Cosmos 332 Rocket 4.1 04:55:06 10° S 04:59:51 69° ESE 05:04:40 10° NNE
BREEZE-M DEB (TANK) 3.2 04:58:16 10° WNW 05:01:09 55° NNE 05:07:13 10° E
BREEZE-M DEB (TANK) 4.0 04:58:58 10° WNW 05:02:02 23° NNW 05:04:01 10° NE
ISS -3.3 05:01:06 10° NW 05:04:23 85° NE 05:07:38 10° SE
Cosmos 372 Rocket 4.2 05:00:08 10° NNW 05:05:16 76° ENE 05:10:21 10° SSE
GPS 2-04 Rocket1 3.6 05:01:58 10° WSW 05:05:24 31° S 05:08:42 10° ESE
CZ-3 Stage 3 4.2 05:16:14 10° W 05:37:16 36° SW 05:42:30 10° SSE
